GFSNW_250_spd_105.txt.gz
Wind_Speed
84 83 80 79 78 70 68 70 68 61 53 44 36 32 30 28 25 24 24 28 34 42 48 52 56 58 61 64 71 83 90 88 88 84 81 76 72 70 75 76 75 74 73 72
79 78 74 75 71 63 66 63 62 53 45 38 32 29 28 25 22 20 22 27 33 40 45 49 52 56 59 60 67 78 87 90 90 87 85 83 77 71 69 71 72 68 71 75
76 71 71 70 63 59 62 58 54 46 38 34 29 26 26 22 19 18 22 26 33 38 42 46 50 53 57 61 61 66 74 82 86 88 88 88 85 77 71 70 70 68 66 68
72 70 67 60 59 57 57 52 46 40 34 31 27 23 22 20 16 18 21 26 32 36 41 45 48 50 52 55 59 62 64 66 70 75 78 80 84 84 78 74 72 72 74 75
68 64 59 56 56 55 51 46 40 36 32 28 24 22 20 17 15 16 19 23 27 33 38 41 42 45 48 52 55 59 61 58 59 63 70 72 73 79 82 82 80 79 83 83
65 61 53 53 54 52 48 41 35 33 30 25 20 19 17 14 15 18 19 21 25 29 32 36 40 43 45 48 53 56 56 55 56 57 63 66 70 76 79 81 77 71 63 60
59 56 51 53 50 49 45 39 33 31 27 23 18 16 15 14 14 14 16 18 22 25 29 33 36 39 43 46 49 49 51 52 53 53 55 59 58 61 61 58 53 52 51 48
59 54 52 53 47 45 44 36 34 30 25 22 17 17 15 14 14 14 16 17 20 22 26 30 33 36 40 42 45 48 46 45 48 51 53 54 57 57 53 49 48 46 43 39
55 54 53 52 44 43 43 33 33 29 24 20 18 17 16 16 15 16 16 17 20 21 22 24 28 32 35 37 42 40 38 41 45 46 48 50 50 48 46 46 42 39 37 35
56 56 54 51 44 42 43 33 31 28 24 20 20 18 17 17 17 17 17 18 19 20 20 21 23 27 33 37 37 32 35 41 43 44 45 46 46 45 47 41 37 36 36 33
60 58 55 51 45 41 42 35 29 28 23 24 20 19 19 19 19 18 18 16 17 18 19 21 22 24 28 32 35 32 38 41 42 44 47 46 43 46 45 40 40 40 39 36
64 59 56 51 45 40 40 39 29 27 27 24 22 22 21 23 21 22 17 19 18 17 17 19 22 24 25 27 31 35 41 39 38 41 44 43 44 46 43 40 40 40 40 39
61 58 53 50 44 40 39 39 33 27 27 25 25 22 27 27 27 25 18 20 18 16 16 18 21 22 24 26 29 35 40 40 40 40 41 41 42 41 39 37 39 42 43 42
58 55 52 48 44 40 40 39 33 29 28 28 26 29 30 31 30 23 18 23 20 17 16 17 18 22 24 26 29 35 38 39 39 40 41 41 40 39 38 38 41 44 44 44
54 52 50 47 43 40 40 39 34 32 29 26 27 33 32 31 28 24 22 23 23 20 17 15 18 20 23 25 29 32 35 36 33 35 38 41 40 39 41 40 42 46 47 46
52 51 49 46 43 41 39 39 37 29 29 27 29 33 38 31 28 27 25 25 25 22 18 18 18 19 21 24 28 31 33 32 28 35 35 34 33 34 40 38 41 44 47 48
49 48 46 45 43 40 38 40 31 31 31 30 30 32 34 32 30 28 26 27 26 26 21 18 18 20 21 24 28 29 30 25 26 25 26 25 29 35 40 34 39 42 46 48
42 42 43 42 39 36 38 38 33 31 30 31 31 32 30 31 30 30 29 27 28 28 25 18 17 21 21 24 26 26 26 24 24 25 22 24 30 35 36 34 38 42 45 46
37 38 37 34 33 37 39 36 28 27 29 31 30 31 32 32 30 30 30 28 28 26 26 22 20 23 21 22 23 24 27 27 26 24 22 24 32 35 35 36 38 42 44 45
34 32 27 29 35 38 34 29 25 26 31 32 31 33 32 31 30 30 30 28 27 28 27 25 26 25 24 21 23 24 27 31 31 30 30 32 32 35 36 37 38 41 44 46
25 24 28 34 34 32 28 22 25 27 30 33 30 33 33 32 32 31 30 32 31 31 28 26 26 28 25 22 24 26 28 31 35 35 35 35 37 38 40 42 44 46 48 49
32 32 33 32 28 22 17 21 26 28 34 39 35 36 36 36 34 34 33 31 30 31 25 26 29 28 25 24 24 27 27 28 31 34 37 39 40 42 43 43 44 46 49 51
25 25 22 20 17 14 19 27 34 35 31 28 29 30 30 31 30 29 24 25 29 28 27 28 28 23 23 25 24 23 23 24 28 31 33 36 38 39 39 40 41 43 46 50
19 19 19 19 20 25 28 26 20 19 23 24 24 26 27 25 24 21 24 29 27 27 23 21 19 19 21 23 23 22 22 23 25 28 30 33 35 36 38 40 41 43 44 46
16 14 16 17 16 14 12 16 19 21 20 19 20 20 19 19 19 20 25 24 22 19 19 18 17 18 19 21 23 25 25 25 26 28 29 31 34 36 39 40 42 44 46 48
18 18 19 18 17 18 18 17 15 14 14 16 15 14 12 11 15 17 18 16 14 14 16 17 19 20 21 23 26 28 29 30 32 33 35 37 39 42 43 44 45 47 49 51
19 18 18 19 19 19 17 17 17 17 16 15 14 16 18 17 16 13 11 11 12 12 15 18 21 23 25 29 32 33 33 34 36 37 39 40 42 43 45 46 48 49 50 51

GFSNW_250_spd_108.txt.gz
Wind_Speed
90 88 87 86 82 80 76 78 78 72 66 65 60 56 47 36 30 26 27 24 25 29 29 35 39 45 47 52 56 61 62 65 70 82 84 76 74 72 69 67 69 72 73 73
87 83 81 79 76 73 74 73 73 65 61 60 57 50 41 31 25 23 24 24 23 26 28 34 37 41 44 46 57 59 63 66 70 80 88 82 75 72 70 70 69 71 73 74
79 78 76 75 71 70 69 70 66 59 58 58 52 43 33 26 22 21 23 22 22 25 28 33 38 40 42 48 52 54 61 61 66 73 82 88 80 74 71 67 63 64 67 67
76 74 72 70 70 68 65 64 61 55 54 53 46 36 28 23 21 20 21 20 21 24 29 33 36 39 42 45 49 51 57 59 61 66 73 83 85 77 72 70 68 66 67 67
74 71 69 71 70 65 63 61 54 51 48 47 39 31 26 21 19 18 18 18 20 23 27 30 35 38 41 43 46 49 52 55 57 59 65 76 86 83 79 77 75 73 74 74
73 71 71 69 66 61 59 53 48 49 43 39 34 28 23 19 17 16 17 17 19 21 25 29 33 36 39 41 45 47 50 52 53 54 59 69 78 84 84 82 80 80 79 78
73 68 65 62 61 61 55 44 45 43 41 33 30 26 20 17 16 16 15 16 17 18 22 27 31 34 38 39 42 45 47 50 54 54 54 59 66 74 78 81 80 78 75 72
69 67 63 61 58 54 47 40 41 41 37 31 27 24 20 16 16 17 16 15 16 19 21 23 25 31 35 38 41 42 44 48 51 54 55 54 55 58 60 61 62 61 60 59
66 63 61 53 46 44 42 39 37 40 34 32 27 23 20 18 17 18 16 16 14 16 17 19 20 24 29 34 39 40 41 44 47 49 52 53 55 55 54 53 54 51 53 52
60 55 51 46 40 41 42 40 37 38 34 32 27 24 20 20 19 19 19 17 16 15 15 18 18 21 26 30 34 37 37 37 41 44 48 51 52 56 54 52 50 47 49 45
56 52 50 46 44 43 44 42 39 38 36 28 29 25 22 22 22 21 19 19 17 16 15 17 18 20 23 27 28 28 31 33 37 44 46 47 47 50 47 50 49 46 43 39
58 56 54 51 49 47 47 48 40 39 38 28 29 27 26 25 25 23 18 21 20 17 15 17 18 19 20 22 25 26 28 33 38 42 41 42 43 44 44 44 44 42 40 39
64 61 60 57 55 53 51 50 42 37 38 33 27 32 29 29 28 23 20 24 22 20 15 15 17 18 18 21 23 25 31 35 37 38 39 40 39 40 42 43 43 40 39 37
62 61 59 57 55 52 49 48 40 38 39 34 26 31 32 31 29 25 20 25 24 22 15 15 16 16 18 21 23 27 30 34 38 38 36 37 38 38 38 41 40 38 37 38
63 62 59 57 54 51 48 45 41 38 39 35 31 30 34 32 29 27 22 25 26 22 16 15 15 17 18 20 24 27 30 32 35 37 37 37 36 38 39 40 37 35 36 38
60 58 57 55 53 50 45 44 42 38 37 37 33 33 35 33 29 28 25 24 28 23 18 16 15 17 17 20 23 26 28 31 32 32 32 34 36 38 38 37 35 35 34 37
55 54 53 52 50 47 44 44 40 38 37 37 34 35 32 32 32 29 27 24 26 24 21 16 17 18 16 18 20 23 27 27 26 26 29 31 36 36 36 36 35 36 35 39
49 49 49 48 46 43 42 43 42 37 37 36 34 34 31 31 32 31 27 25 24 24 21 17 19 20 18 20 19 22 24 25 26 25 27 30 30 29 29 34 37 36 38 41
44 44 44 42 39 40 43 42 37 34 35 36 34 32 29 30 31 32 30 27 28 25 24 19 20 22 19 18 19 20 22 25 27 31 31 30 27 27 29 35 39 37 39 41
39 37 33 33 37 40 38 34 30 31 36 36 34 31 29 28 30 33 32 29 29 27 25 22 22 22 19 19 20 20 23 26 27 32 35 34 33 34 38 41 40 41 42 45
29 28 29 33 35 36 29 26 28 33 37 34 30 29 28 27 29 31 32 31 29 28 24 24 25 23 21 20 20 21 23 26 27 30 35 37 38 40 41 41 41 42 45 47
31 31 33 33 31 25 23 28 31 34 35 32 28 29 28 28 28 29 30 31 30 29 27 27 26 22 20 23 22 22 22 24 27 30 34 37 41 42 42 42 44 45 46 48
29 28 25 20 15 18 26 29 32 33 27 23 27 29 27 28 27 29 29 29 30 30 31 28 26 22 20 22 22 22 22 24 27 31 33 36 40 43 43 44 44 44 46 48
20 20 19 19 21 26 30 29 24 23 26 27 27 26 25 26 26 26 24 27 27 24 22 20 22 24 23 26 27 25 24 25 27 29 32 34 36 39 41 42 43 43 44 45
22 23 22 23 25 26 24 20 22 23 21 20 21 21 21 21 21 21 23 21 17 15 18 20 22 22 25 27 26 25 27 29 30 31 32 34 36 38 39 39 41 43 45 47
22 23 21 19 18 16 17 19 17 16 15 15 14 14 15 16 17 17 15 14 15 16 17 19 19 21 24 27 27 26 26 28 31 33 35 37 40 41 42 44 45 47 49 49
25 24 22 21 21 20 19 19 18 17 17 18 19 19 18 15 13 11 11 11 13 14 17 18 20 23 25 26 27 28 29 29 30 32 35 37 40 42 43 44 46 47 48 49

GFSNW_250_spd_114.txt.gz
Wind_Speed
104 106 106 106 108 111 105 110 107 103 101 98 92 87 83 80 79 71 65 57 49 44 42 38 31 16 20 17 18 21 26 30 32 41 45 46 50 55 61 61 57 55 56 50
103 102 107 108 109 108 108 102 99 98 93 88 84 80 79 76 72 64 55 50 43 41 38 34 26 17 17 16 16 21 25 31 31 38 44 46 47 55 60 60 61 56 52 49
100 100 104 105 104 97 91 89 89 88 84 80 75 74 72 70 63 57 49 46 40 36 31 29 23 18 14 16 18 22 26 35 40 45 46 51 52 53 59 61 58 61 58 53
93 97 100 99 86 84 81 82 79 76 74 73 68 66 65 64 56 50 48 43 38 29 25 22 22 17 14 17 19 24 30 35 40 50 57 51 50 51 56 60 61 63 63 58
92 90 85 83 81 79 79 72 68 68 67 66 63 60 59 58 52 46 45 40 31 26 21 20 17 16 12 16 22 28 31 34 36 43 46 47 47 51 54 60 64 68 70 64
86 85 83 78 76 72 71 67 66 65 61 62 59 56 55 53 49 44 40 35 30 25 20 18 15 14 12 13 22 25 30 33 34 39 42 45 46 51 49 53 65 67 72 66
85 79 75 70 69 68 64 63 61 60 58 56 56 54 51 48 47 41 36 31 26 22 20 19 17 14 11 13 18 24 27 33 36 39 41 46 48 49 50 54 56 65 72 70
77 76 75 70 70 68 64 61 59 55 55 53 53 51 46 44 43 39 31 29 25 21 20 19 17 17 15 13 17 23 26 31 36 40 41 44 50 50 50 50 57 64 75 76
71 70 68 67 65 61 58 56 52 53 50 54 52 47 44 41 39 35 30 26 24 19 20 19 16 15 17 16 17 21 26 30 35 40 42 43 45 50 50 51 55 61 65 73
67 65 62 61 58 56 54 52 51 53 53 52 49 45 42 39 36 33 30 25 25 20 20 20 17 14 15 16 14 13 22 29 33 37 41 42 44 49 51 54 53 57 56 59
62 61 58 57 55 54 53 52 54 52 48 47 44 43 42 39 34 32 30 27 25 23 20 19 18 16 15 14 16 17 25 26 31 37 42 43 44 45 49 52 53 55 54 53
61 59 56 55 54 54 54 55 50 47 46 41 43 42 43 40 36 32 30 28 26 24 22 20 19 18 15 16 16 17 20 24 30 34 37 36 36 39 43 48 50 51 47 47
63 60 59 59 58 57 55 50 46 45 44 42 44 42 42 40 35 33 30 28 27 25 23 22 21 19 18 18 17 18 20 22 27 31 34 33 35 39 43 47 49 45 50 50
61 61 59 58 56 54 51 51 48 48 48 45 41 40 38 36 34 33 31 27 27 27 25 22 23 21 21 20 18 19 20 23 26 30 34 34 36 39 41 43 44 41 45 47
60 59 57 55 54 55 53 50 48 46 45 43 40 36 35 35 32 34 32 29 27 28 25 23 23 24 24 23 21 19 20 23 26 28 30 33 34 35 37 39 40 39 39 43
60 58 56 55 55 54 49 50 50 43 42 41 40 38 38 37 36 36 33 29 29 27 26 24 25 24 25 25 23 22 20 22 25 25 27 30 32 33 34 35 38 38 38 39
57 56 54 54 52 50 50 53 49 45 44 45 43 42 42 41 39 37 35 30 30 29 25 24 24 25 26 26 25 24 21 20 23 25 26 28 30 32 31 33 35 35 36 38
58 56 55 54 53 53 56 56 51 49 48 45 45 46 43 41 40 37 34 30 29 29 25 23 24 25 27 28 25 26 23 21 21 23 25 28 30 31 33 35 35 36 38 38
56 57 56 55 55 57 62 57 53 51 48 46 48 46 46 39 39 36 31 29 29 29 25 22 24 25 26 32 24 26 25 24 22 23 27 29 31 33 35 35 35 37 38 38
56 56 56 58 62 63 57 57 54 48 47 46 50 43 43 38 36 32 30 28 28 28 24 24 26 27 28 26 23 27 27 25 24 23 27 29 31 34 37 38 39 39 40 41
49 49 52 56 56 53 50 46 43 41 43 47 43 39 38 35 32 30 28 27 27 25 24 24 24 26 23 25 28 29 28 27 26 27 27 30 32 34 37 39 42 41 42 43
44 46 49 50 47 43 38 33 36 39 42 43 39 36 34 31 28 26 25 25 26 25 22 23 20 20 26 28 29 29 28 29 29 31 33 34 34 35 38 40 42 42 44 46
40 39 41 39 35 30 30 35 40 41 41 34 28 29 29 25 25 23 23 24 23 22 22 21 19 23 24 26 26 26 28 29 30 33 35 37 38 37 38 40 42 43 44 46
33 33 32 29 30 33 37 39 36 31 23 22 25 26 24 21 21 21 20 20 20 22 22 20 21 22 24 26 29 30 31 32 34 37 38 38 37 38 38 39 41 42 44 46
27 26 28 31 35 33 28 26 20 21 22 24 22 21 19 19 19 18 18 18 21 21 21 22 23 26 28 29 31 32 33 33 35 34 36 37 37 37 38 39 40 43 44 45
30 33 32 29 25 22 20 21 23 23 21 20 18 16 16 16 16 17 18 19 19 21 22 23 24 25 26 28 29 29 29 30 31 32 34 35 36 36 37 38 40 42 43 44
27 24 23 22 21 24 26 24 20 19 17 16 15 13 13 14 15 16 16 16 16 16 16 17 18 20 22 23 24 25 26 28 29 30 31 32 34 35 37 39 40 42 45 46

GFSNW_250_spd_117.txt.gz
Wind_Speed
70 78 90 95 93 94 92 94 97 94 98 96 100 105 111 115 112 104 88 78 69 64 55 47 39 32 32 31 25 21 17 18 20 18 24 29 31 34 39 36 35 39 36 44
65 76 79 85 88 89 94 99 97 101 99 100 105 109 109 101 100 86 77 69 62 53 45 40 34 29 28 27 24 20 18 19 21 23 26 29 32 33 36 37 39 42 48 47
61 68 76 77 78 79 86 91 97 100 103 104 103 102 100 89 77 74 68 60 52 43 41 36 31 23 22 22 21 19 19 19 22 26 30 32 35 36 35 39 42 46 47 45
67 68 68 70 70 72 77 80 79 83 87 88 90 77 71 68 68 66 62 52 43 38 37 32 27 18 17 18 19 20 20 19 21 27 29 33 36 37 37 39 44 49 50 49
70 68 69 73 74 75 74 75 78 79 78 75 72 67 66 63 61 58 54 47 37 38 34 29 24 16 14 16 17 21 21 22 25 30 32 33 37 39 40 45 51 54 54 56
77 73 75 76 79 81 80 79 80 85 83 77 67 61 60 60 55 53 47 43 40 40 33 24 21 16 11 13 17 19 22 23 27 28 31 33 39 42 43 47 53 55 57 61
85 82 80 81 82 85 81 84 82 75 78 67 60 57 56 51 51 48 45 39 39 38 32 24 18 16 12 10 17 19 21 26 28 29 32 34 39 43 46 50 56 57 62 62
81 82 81 82 80 79 78 85 83 74 70 67 60 55 50 47 47 45 41 40 40 38 33 25 19 13 12 11 14 21 23 27 33 33 34 38 43 42 45 49 60 50 53 56
88 87 80 79 84 82 79 84 71 63 59 56 52 51 47 44 44 41 39 39 39 36 32 26 23 16 13 9 10 15 23 27 32 38 40 41 44 42 43 46 51 54 56 62
87 88 82 79 82 82 73 65 60 59 54 52 49 47 44 45 40 39 37 37 38 36 31 26 24 20 15 12 11 16 22 28 33 34 39 41 45 47 47 49 51 50 54 57
82 85 89 82 72 69 64 61 60 55 48 48 46 44 44 39 37 38 36 36 37 35 29 27 24 23 19 15 14 16 20 24 28 33 37 39 39 43 48 49 50 53 55 54
69 70 67 66 64 59 55 52 51 50 48 43 43 44 41 38 36 38 36 34 35 33 29 26 23 23 22 20 17 18 19 23 26 29 32 36 37 40 42 44 48 52 55 55
68 65 64 62 59 54 49 46 46 45 44 43 44 43 39 38 37 38 36 33 33 31 28 26 23 23 24 23 20 18 19 22 24 26 30 32 33 36 38 40 43 47 50 50
65 62 61 59 56 53 49 47 45 45 45 43 44 41 41 41 39 36 33 33 31 28 26 27 26 24 25 25 25 20 21 22 23 24 28 31 34 36 39 43 44 46 46 46
63 61 58 56 54 51 48 47 47 46 46 43 41 42 40 38 36 35 34 32 29 27 27 28 27 23 25 26 27 22 24 22 24 24 26 29 30 34 39 41 42 42 42 42
61 59 57 54 53 50 46 46 45 44 44 44 42 38 38 37 37 36 34 33 30 29 29 27 26 23 26 27 29 25 26 24 24 24 25 27 27 30 33 36 39 39 40 41
62 60 58 55 52 49 49 49 47 45 45 43 41 42 42 40 37 36 34 34 32 30 30 28 26 23 27 27 30 26 28 25 25 26 25 26 28 28 31 33 34 36 38 39
62 61 60 58 55 55 55 53 50 46 45 44 44 45 41 41 39 37 35 34 32 31 28 27 27 24 25 28 32 27 28 26 26 26 26 27 29 30 30 31 34 35 37 39
57 57 55 54 53 56 55 51 47 44 43 42 46 45 44 41 40 38 36 33 32 30 27 29 27 24 26 30 30 26 26 27 29 27 27 27 29 30 32 33 34 37 39 37
57 55 53 53 57 55 52 48 44 40 39 42 50 47 47 42 40 38 35 32 31 28 27 28 27 25 24 27 29 28 28 30 32 30 27 27 29 31 32 33 36 38 39 40
56 55 57 57 56 52 48 46 41 40 42 49 53 48 46 43 37 34 32 30 29 29 27 26 24 19 23 28 31 30 30 29 31 31 30 29 29 29 31 33 36 38 40 43
55 54 55 55 52 49 45 40 39 42 47 53 53 43 41 38 31 29 28 28 29 28 23 23 20 22 25 28 29 30 31 30 30 31 32 32 32 32 32 32 35 38 40 42
49 49 50 47 46 41 38 39 43 47 51 50 38 34 34 30 26 25 24 28 26 24 21 19 19 23 23 26 28 30 31 32 31 32 33 35 36 36 37 36 36 36 38 41
40 41 41 41 36 36 39 43 45 43 38 31 29 28 27 23 22 23 24 24 22 21 18 17 22 21 22 24 25 28 28 29 30 31 32 34 35 37 39 40 40 40 39 40
34 35 35 32 35 37 36 37 34 29 24 25 26 23 20 20 22 22 21 20 20 19 18 18 19 20 22 23 24 26 28 30 32 33 35 37 37 38 38 39 40 42 43 42
29 30 30 32 32 31 29 25 19 21 22 22 20 19 19 19 19 19 18 16 16 14 17 17 18 20 21 23 24 26 27 29 30 31 32 33 34 34 35 36 37 38 39 40
31 29 29 26 25 23 20 20 23 23 20 19 18 18 18 17 15 14 15 15 14 14 14 14 15 15 16 17 19 20 22 23 25 26 27 29 31 32 34 35 36 37 38 40

GFSNW_250_spd_123.txt.gz
Wind_Speed
69 68 68 73 74 81 80 82 86 86 79 86 79 71 64 70 72 76 76 80 86 88 93 101 107 104 94 78 66 55 48 45 41 34 27 24 25 24 21 18 20 23 20 15
66 67 61 67 73 73 80 81 78 78 75 79 68 64 63 66 71 71 75 77 82 89 95 99 103 89 73 64 54 48 39 35 33 27 22 21 22 20 20 20 23 23 25 20
64 62 63 63 67 70 68 67 63 68 66 70 66 63 62 65 65 63 68 72 77 80 83 87 78 65 58 53 46 38 35 30 27 22 20 20 16 21 20 25 26 30 35 26
58 61 58 55 56 56 56 56 58 53 56 54 56 57 57 53 52 57 62 65 65 68 68 62 58 53 48 46 40 31 31 28 24 21 20 20 21 20 22 27 33 37 43 39
62 59 56 54 54 54 58 62 58 59 62 59 62 54 52 50 54 54 52 57 59 59 57 52 46 43 41 37 31 27 27 24 24 18 22 24 25 23 26 27 33 41 49 51
60 54 55 49 40 43 50 53 51 51 51 48 44 45 46 46 47 49 55 58 57 55 52 47 43 37 35 35 30 20 26 23 19 20 22 26 28 26 34 35 38 46 47 48
59 58 53 49 44 42 40 40 42 41 43 42 38 39 42 47 52 57 57 57 57 52 49 45 39 32 30 28 28 24 24 24 20 22 22 27 30 30 38 42 43 50 53 52
63 56 51 45 46 43 41 41 41 39 37 37 40 42 48 50 54 56 54 59 62 53 48 42 38 31 28 26 26 24 21 23 21 24 24 25 27 29 36 44 49 53 57 58
53 51 48 46 51 48 47 47 44 41 41 41 45 47 53 53 52 54 57 59 58 51 43 41 35 28 24 24 25 22 23 21 22 24 21 24 23 28 34 43 53 51 54 55
55 57 56 52 51 49 47 44 43 43 45 48 50 51 54 50 55 58 53 53 49 46 41 40 34 29 23 19 23 25 21 23 24 24 23 24 25 24 32 34 44 54 52 56
56 54 57 60 55 52 52 49 48 48 51 51 54 53 52 56 57 53 53 47 45 42 40 38 32 31 26 19 18 25 23 23 25 26 26 25 28 28 28 33 39 46 50 54
60 57 58 61 60 57 56 54 54 52 51 53 57 55 54 55 51 50 45 43 42 40 39 36 34 33 29 23 19 22 26 25 27 28 29 29 29 31 33 33 36 42 47 51
66 61 59 60 59 60 62 61 58 58 50 45 53 53 49 49 51 46 43 42 41 41 38 35 35 32 28 27 24 20 25 26 28 29 31 32 31 32 34 36 38 40 43 49
67 61 59 57 54 54 53 50 48 47 49 48 48 49 46 45 46 44 42 41 40 39 35 33 31 31 30 29 30 27 24 28 29 31 32 33 34 35 35 36 38 41 44 47
67 68 64 61 58 57 55 53 53 53 55 50 48 43 41 44 44 42 41 41 41 36 34 33 31 33 34 34 35 32 28 26 29 31 33 34 35 36 38 39 41 43 44 45
61 61 62 63 63 62 61 56 50 49 47 45 43 41 41 40 39 39 41 40 38 36 35 34 32 34 36 37 38 34 32 30 28 30 32 35 37 38 40 39 41 44 45 44
61 58 58 57 55 54 51 48 47 43 40 41 40 40 38 38 38 37 38 36 36 37 36 34 34 35 39 41 40 36 34 31 30 31 31 33 36 39 39 41 41 41 41 42
61 59 58 56 54 52 51 48 46 44 43 42 42 42 38 38 37 36 37 38 38 37 35 35 36 38 41 43 40 35 34 32 33 32 31 31 33 36 37 36 38 37 38 40
66 63 61 59 57 55 53 49 47 45 44 43 43 40 38 38 38 39 40 40 37 36 36 37 39 41 44 42 37 33 31 31 33 32 28 29 31 32 35 35 35 36 35 36
66 64 62 60 59 55 51 49 48 46 44 41 40 40 40 40 40 40 39 37 36 37 38 39 40 44 43 39 33 30 30 30 31 30 28 28 29 29 31 33 34 34 35 35
64 63 61 60 57 53 49 46 43 43 45 44 43 43 42 42 40 39 38 39 39 40 41 41 38 41 38 34 30 29 28 28 29 29 29 29 27 29 29 30 31 32 33 34
63 62 59 56 53 52 47 45 43 47 50 48 46 44 43 41 37 38 40 41 41 41 39 36 33 34 31 28 28 26 25 25 26 27 28 28 26 26 28 29 30 31 32 33
60 59 55 52 48 44 42 43 49 56 53 46 41 40 39 39 39 40 40 42 41 39 34 30 29 29 24 25 24 23 22 23 23 24 24 25 26 26 27 28 30 32 34 34
59 58 55 51 46 44 45 48 52 49 45 42 40 40 41 42 38 39 40 39 36 32 27 25 24 24 22 20 19 19 21 21 22 23 24 25 27 29 30 30 31 32 34 35
54 54 53 51 50 50 50 50 48 47 44 46 43 40 42 40 38 37 35 34 29 24 23 21 20 19 17 16 17 17 18 19 21 23 24 26 27 29 31 31 32 34 34 36
49 50 52 52 53 50 50 49 49 48 45 45 42 41 38 37 35 33 30 24 22 23 18 16 15 13 14 14 15 16 16 17 18 19 21 22 25 27 29 30 32 34 35 35
42 45 46 45 45 47 49 50 49 45 41 37 38 37 36 33 31 25 22 20 19 15 13 12 12 12 12 11 11 11 12 14 17 19 20 23 25 27 29 31 33 34 34 35